period_start,C,m1,H,J0,J1,J2,J3,J4,J5,JA,JB,JC,JD,JJ,JK,JN,#
2017-01-14 00:01:40,-0.00,7.68,0.00,22.03,26.30,29.75,14.97,49.37,1040.75,2028.96,1510.00,1711.99,1954.00,600.16,612.36,31.77,0000 0000 0000 0000 000000
2017-01-14 00:06:41,0.01,7.68,0.00,22.04,26.30,29.79,14.99,49.42,1040.68,2028.96,1509.97,1711.93,1954.00,600.01,612.19,31.82,0000 0000 0000 0000 000000
2017-01-14 00:11:42,0.05,7.68,0.00,22.05,26.30,29.81,14.91,49.42,1040.63,2028.94,1509.74,1711.52,1953.97,599.95,611.97,31.87,0000 0000 0000 0000 000000
2017-01-14 00:16:44,0.07,7.69,0.00,22.05,26.30,29.81,14.93,49.51,1040.58,2028.92,1509.06,1711.05,1953.57,599.93,612.00,31.92,0000 0000 0000 0000 000000
2017-01-14 00:21:45,0.01,7.69,0.00,22.04,26.31,29.80,15.03,49.50,1040.55,2028.92,1508.99,1711.00,1953.06,600.19,612.22,31.97,0000 0000 0000 0000 000000
2017-01-14 00:26:46,0.01,7.69,0.00,22.07,26.32,29.84,14.92,49.54,1040.58,2028.94,1508.86,1711.00,1953.02,599.91,611.89,32.02,0000 0000 0000 0000 000000
2017-01-14 00:31:47,0.04,7.69,0.00,22.09,26.32,29.83,14.91,49.46,1040.73,2028.94,1508.42,1710.99,1953.00,599.73,611.84,32.07,0000 0000 0000 0000 000000
2017-01-14 00:36:48,-0.02,7.69,0.00,22.09,26.32,29.86,14.91,49.42,1040.92,2028.88,1508.31,1710.97,1952.98,599.89,612.10,32.12,0000 0000 0000 0000 000000
2017-01-14 00:41:50,0.04,7.69,0.00,22.11,26.33,29.87,14.94,49.49,1040.82,2028.91,1508.02,1710.72,1952.85,600.15,612.26,32.18,0000 0000 0000 0000 000000
2017-01-14 00:46:51,0.05,7.70,0.00,22.09,26.34,29.89,14.86,49.31,1040.63,2028.82,1507.99,1710.19,1952.18,599.87,611.78,32.23,0000 0000 0000 0000 000000
2017-01-14 00:51:52,0.00,7.70,0.00,22.10,26.35,29.90,15.00,49.38,1040.63,2028.70,1507.94,1710.03,1952.01,600.08,611.96,32.28,0000 0000 0000 0000 000000
2017-01-14 00:56:54,0.06,7.70,0.00,22.12,26.35,29.90,14.96,49.48,1040.59,2028.77,1507.25,1710.00,1952.00,600.15,612.05,32.33,0000 0000 0000 0000 000000
2017-01-14 01:01:55,0.01,7.70,0.00,22.10,26.35,29.90,15.02,49.40,1040.73,2028.69,1507.01,1709.99,1952.00,600.09,612.13,32.38,0000 0000 0000 0000 000000
2017-01-14 01:06:57,-0.01,7.70,0.00,22.13,26.36,29.91,14.93,49.41,1040.84,2028.60,1506.99,1709.99,1951.90,599.96,611.99,32.43,0000 0000 0000 0000 000000
2017-01-14 01:11:58,0.08,7.70,0.00,22.15,26.37,29.92,15.00,49.53,1040.78,2028.61,1506.52,1709.64,1951.32,600.04,611.93,32.48,0000 0000 0000 0000 000000
2017-01-14 01:16:59,0.07,7.71,0.00,22.17,26.37,29.93,14.94,49.48,1040.65,2028.60,1506.04,1709.13,1951.03,599.99,611.92,32.53,0000 0000 0000 0000 000000
2017-01-14 01:22:00,0.03,7.71,0.00,22.15,26.37,29.93,14.94,49.46,1040.58,2028.75,1505.99,1709.01,1951.00,599.86,611.58,32.58,0000 0000 0000 0000 000000
2017-01-14 01:27:02,0.02,7.71,0.00,22.17,26.39,29.93,14.92,49.52,1040.73,2028.80,1505.94,1709.00,1950.91,600.03,611.86,32.63,0000 0000 0000 0000 000000
2017-01-14 01:32:03,0.01,7.71,0.00,22.17,26.40,29.93,15.00,49.52,1040.71,2028.50,1505.42,1708.97,1950.23,599.99,611.82,32.68,0000 0000 0000 0000 000000
2017-01-14 01:37:04,-0.00,7.71,0.00,22.17,26.40,29.97,14.91,49.51,1040.75,2028.22,1505.01,1708.88,1950.01,599.46,611.49,32.73,0000 0000 0000 0000 000000
2017-01-14 01:42:05,0.03,7.71,0.00,22.20,26.41,29.95,15.00,49.57,1040.77,2028.22,1505.00,1708.41,1950.00,600.30,612.15,32.78,0000 0000 0000 0000 000000
2017-01-14 01:47:07,0.01,7.71,0.00,22.23,26.42,29.96,14.92,49.48,1040.89,2028.10,1504.87,1708.05,1949.90,600.02,611.85,32.83,0000 0000 0000 0000 000000
2017-01-14 01:52:08,0.08,7.72,0.00,22.22,26.42,29.99,14.98,49.64,1040.95,2028.08,1504.07,1708.00,1949.24,600.39,612.23,32.88,0000 0000 0000 0000 000000
2017-01-14 01:57:09,0.02,7.72,0.00,22.24,26.45,29.99,15.04,49.56,1040.97,2028.10,1504.00,1707.97,1949.01,600.25,612.12,32.93,0000 0000 0000 0000 000000
2017-01-14 02:02:11,0.05,7.72,0.00,22.22,26.45,30.01,14.98,49.59,1040.84,2028.09,1503.71,1707.65,1948.97,600.24,612.26,32.99,0000 0000 0000 0000 000000
2017-01-14 02:07:12,0.08,7.72,0.00,22.24,26.46,29.98,14.97,49.64,1040.75,2028.04,1503.06,1707.06,1948.37,599.72,611.55,33.04,0000 0000 0000 0000 000000
2017-01-14 02:12:13,0.06,7.73,0.00,22.25,26.47,30.02,15.02,49.60,1040.64,2028.02,1502.28,1706.98,1948.00,600.21,611.92,33.09,0000 0000 0000 0000 000000
2017-01-14 02:17:14,0.07,7.73,0.00,22.25,26.47,30.03,14.92,49.48,1040.68,2028.04,1501.97,1706.49,1947.67,599.88,611.61,33.14,0000 0000 0000 0000 000000
2017-01-14 02:22:16,0.09,7.73,0.00,22.24,26.48,30.03,14.94,49.70,1040.70,2028.03,1501.13,1706.00,1947.02,600.31,612.03,33.19,0000 0000 0000 0000 000000
2017-01-14 02:27:17,0.05,7.74,0.00,22.25,26.50,30.04,14.93,49.61,1040.84,2028.04,1500.97,1705.81,1946.59,600.02,612.02,33.24,0000 0000 0000 0000 000000
2017-01-14 02:32:18,0.11,7.74,0.00,22.27,26.50,30.05,14.93,49.58,1040.70,2028.02,1500.17,1705.07,1946.00,600.24,611.86,33.29,0000 0000 0000 0000 000000
2017-01-14 02:37:20,0.07,7.74,0.00,22.27,26.50,30.02,14.93,49.68,1040.63,2028.01,1499.63,1704.98,1945.53,599.94,611.62,33.34,0000 0000 0000 0000 000000
2017-01-14 02:42:21,0.09,7.75,0.00,22.28,26.51,30.05,14.91,49.79,1040.61,2028.04,1499.02,1704.24,1945.00,599.63,611.27,33.39,0000 0000 0000 0000 000000
2017-01-14 02:47:22,0.09,7.76,0.00,22.29,26.52,30.06,14.92,49.68,1040.57,2028.03,1498.26,1703.94,1944.22,599.85,611.22,33.44,0000 0000 0000 0000 000000
2017-01-14 02:52:24,0.12,7.76,0.00,22.30,26.52,30.05,14.95,49.58,1040.55,2028.01,1497.62,1703.15,1943.70,599.88,611.34,33.49,0000 0000 0000 0000 000000
2017-01-14 02:57:25,0.11,7.76,0.00,22.29,26.52,30.05,14.93,49.57,1040.55,2028.02,1496.77,1702.64,1942.81,599.89,611.41,33.54,0000 0000 0000 0000 000000
2017-01-14 03:02:26,0.08,7.77,0.00,22.30,26.53,30.05,14.85,49.51,1040.54,2028.00,1496.00,1702.01,1942.04,599.62,611.24,33.59,0000 0000 0000 0000 000000
2017-01-14 03:07:27,0.15,7.78,0.00,22.30,26.54,30.03,15.00,49.53,1040.55,2028.00,1495.07,1701.33,1941.30,600.51,612.02,33.64,0000 0000 0000 0000 000000
2017-01-14 03:12:28,0.09,7.78,0.00,22.30,26.55,30.01,14.95,49.68,1040.56,2028.00,1494.05,1700.87,1940.72,600.38,611.95,33.69,0000 0000 0000 0000 000000
2017-01-14 03:17:30,0.12,7.79,0.00,22.34,26.55,30.04,15.01,49.56,1040.57,2028.00,1493.17,1700.08,1940.01,600.06,611.55,33.74,0000 0000 0000 0000 000000
2017-01-14 03:22:31,0.11,7.79,0.00,22.33,26.55,30.03,14.94,49.59,1040.59,2028.00,1492.51,1699.72,1939.26,599.96,611.48,33.79,0000 0000 0000 0000 000000
2017-01-14 03:27:32,0.09,7.80,0.00,22.33,26.55,30.05,14.95,49.73,1040.57,2028.00,1491.72,1699.02,1938.77,600.10,611.60,33.84,0000 0000 0000 0000 000000
2017-01-14 03:32:34,0.12,7.81,0.00,22.34,26.55,30.07,14.93,49.67,1040.56,2028.00,1490.85,1698.39,1937.99,599.70,611.24,33.89,0000 0000 0000 0000 000000
2017-01-14 03:37:35,0.09,7.81,0.00,22.34,26.57,30.06,14.86,49.70,1040.68,2028.00,1490.03,1697.91,1937.15,599.63,611.17,33.94,0000 0000 0000 0000 000000
2017-01-14 03:42:36,0.15,7.82,0.00,22.37,26.57,30.08,15.02,49.66,1041.01,2028.00,1489.21,1697.10,1936.39,600.19,611.77,34.00,0000 0000 0000 0000 000000
2017-01-14 03:47:37,0.12,7.82,0.00,22.37,26.57,30.07,14.85,49.65,1041.03,2028.00,1488.49,1696.62,1935.67,599.82,611.52,34.05,0000 0000 0000 0000 000000
2017-01-14 03:52:39,0.07,7.83,0.00,22.36,26.57,30.09,14.94,49.63,1041.03,2028.00,1487.69,1696.00,1934.97,600.17,611.82,34.10,0000 0000 0000 0000 000000
2017-01-14 03:57:40,0.13,7.84,0.00,22.37,26.58,30.12,14.89,49.71,1041.03,2028.00,1486.87,1695.26,1934.13,599.91,611.55,34.15,0000 0000 0000 0000 000000
2017-01-14 04:02:41,0.10,7.84,0.00,22.39,26.60,30.11,14.92,49.81,1041.03,2028.00,1486.01,1694.80,1933.48,600.00,611.72,34.20,0000 0000 0000 0000 000000
2017-01-14 04:07:43,0.11,7.85,0.00,22.41,26.60,30.12,14.96,49.83,1041.03,2028.00,1485.12,1694.05,1932.91,600.18,611.70,34.25,0000 0000 0000 0000 000000
2017-01-14 04:12:44,0.13,7.85,0.00,22.41,26.61,30.14,14.94,50.06,1041.05,2027.99,1484.48,1693.57,1932.08,600.00,611.60,34.30,0000 0000 0000 0000 000000
2017-01-14 04:17:46,0.07,7.86,0.00,22.41,26.62,30.14,14.84,49.85,1041.05,2027.98,1483.87,1693.01,1931.43,600.09,611.71,34.35,0000 0000 0000 0000 000000
2017-01-14 04:22:47,0.10,7.86,0.00,22.43,26.62,30.15,14.84,49.83,1041.09,2027.99,1483.07,1692.63,1930.93,599.63,611.21,34.40,0000 0000 0000 0000 000000
2017-01-14 04:27:48,0.10,7.87,0.00,22.46,26.64,30.18,15.02,49.81,1041.15,2027.99,1482.47,1692.02,1930.13,600.36,611.99,34.45,0000 0000 0000 0000 000000
2017-01-14 04:32:50,0.06,7.87,0.00,22.46,26.65,30.18,14.94,49.76,1041.26,2027.96,1481.99,1691.67,1929.73,600.00,611.49,34.50,0000 0000 0000 0000 000000
2017-01-14 04:37:51,0.10,7.88,0.00,22.47,26.65,30.19,14.93,49.83,1041.13,2027.95,1481.22,1691.03,1929.03,599.79,611.26,34.55,0000 0000 0000 0000 000000
2017-01-14 04:42:52,0.08,7.88,0.00,22.49,26.67,30.20,14.90,49.73,1041.32,2027.87,1480.70,1690.73,1928.47,599.79,611.31,34.60,0000 0000 0000 0000 000000
2017-01-14 04:47:54,0.03,7.89,0.00,22.51,26.67,30.16,14.94,49.72,1041.26,2027.62,1480.01,1690.05,1927.99,600.28,611.62,34.65,0000 0000 0000 0000 000000
2017-01-14 04:52:55,0.10,7.89,0.00,22.52,26.68,30.21,14.94,49.79,1041.26,2027.58,1479.42,1689.89,1927.31,599.82,611.24,34.70,0000 0000 0000 0000 000000
2017-01-14 04:57:56,0.04,7.89,0.00,22.53,26.70,30.24,14.93,49.77,1041.31,2027.28,1478.82,1689.13,1926.97,599.96,611.42,34.75,0000 0000 0000 0000 000000
2017-01-14 05:02:57,0.07,7.90,0.00,22.54,26.70,30.25,14.90,49.80,1041.35,2027.19,1478.04,1688.95,1926.20,599.82,611.14,34.80,0000 0000 0000 0000 000000
2017-01-14 05:07:59,0.11,7.90,0.00,22.57,26.70,30.26,14.92,49.93,1041.15,2027.16,1477.48,1688.35,1925.96,599.81,611.18,34.85,0000 0000 0000 0000 000000
2017-01-14 05:12:59,0.07,7.90,0.00,22.57,26.71,30.23,14.91,49.93,1041.07,2027.27,1476.95,1688.01,1925.21,599.91,611.23,34.91,0000 0000 0000 0000 000000
2017-01-14 05:18:01,0.06,7.91,0.00,22.56,26.72,30.27,14.93,49.83,1041.10,2027.14,1476.13,1687.78,1924.95,600.10,611.28,34.96,0000 0000 0000 0000 000000
2017-01-14 05:23:02,0.09,7.91,0.00,22.56,26.72,30.26,14.91,49.88,1041.35,2027.14,1475.79,1687.08,1924.21,599.52,611.08,35.01,0000 0000 0000 0000 000000
2017-01-14 05:28:03,0.05,7.92,0.00,22.55,26.72,30.25,14.99,49.93,1041.51,2027.18,1475.00,1686.96,1923.94,600.03,611.62,35.06,0000 0000 0000 0000 000000
2017-01-14 05:33:05,0.14,7.92,0.00,22.54,26.72,30.24,14.98,50.08,1041.51,2027.12,1474.17,1686.19,1923.12,599.83,611.42,35.11,0000 0000 0000 0000 000000
2017-01-14 05:38:06,0.06,7.92,0.00,22.54,26.73,30.22,14.94,50.20,1041.48,2027.06,1473.56,1685.98,1922.69,599.88,611.42,35.16,0000 0000 0000 0000 000000
2017-01-14 05:43:08,0.09,7.93,0.00,22.54,26.74,30.20,14.94,50.10,1041.26,2027.06,1472.94,1685.24,1922.01,599.75,611.19,35.21,0000 0000 0000 0000 000000
2017-01-14 05:48:09,0.09,7.94,0.00,22.52,26.75,30.13,14.92,49.96,1041.08,2027.06,1472.12,1684.98,1921.42,600.01,611.30,35.26,0000 0000 0000 0000 000000
2017-01-14 05:53:10,0.10,7.94,0.00,22.50,26.75,30.15,14.87,50.04,1041.03,2027.03,1471.64,1684.39,1920.98,599.73,611.12,35.31,0000 0000 0000 0000 000000
2017-01-14 05:58:11,0.06,7.95,0.00,22.49,26.75,29.97,14.91,50.10,1041.02,2027.02,1470.99,1684.00,1920.19,600.07,611.49,35.36,0000 0000 0000 0000 000000
2017-01-14 06:03:13,0.12,7.95,0.00,22.48,26.75,30.05,14.97,50.23,1040.96,2027.02,1470.25,1683.45,1919.94,600.28,611.72,35.41,0000 0000 0000 0000 000000
2017-01-14 06:08:14,0.06,7.95,0.00,22.46,26.75,30.06,14.87,50.17,1041.02,2027.04,1469.83,1683.01,1919.15,599.82,611.32,35.46,0000 0000 0000 0000 000000
2017-01-14 06:13:16,0.10,7.96,0.00,22.44,26.74,29.99,14.90,50.15,1041.03,2027.03,1469.05,1682.66,1918.74,599.87,611.46,35.51,0000 0000 0000 0000 000000
2017-01-14 06:18:17,0.10,7.96,0.00,22.42,26.73,30.00,14.89,50.13,1041.02,2027.05,1468.34,1682.02,1918.02,599.99,611.35,35.56,0000 0000 0000 0000 000000
2017-01-14 06:23:18,0.10,7.97,0.00,22.39,26.72,30.04,14.91,50.19,1041.03,2027.03,1467.82,1681.55,1917.31,600.13,611.65,35.61,0000 0000 0000 0000 000000
2017-01-14 06:28:19,0.06,7.97,0.00,22.39,26.72,29.99,14.89,50.28,1041.03,2027.03,1467.06,1681.01,1916.93,600.06,611.60,35.66,0000 0000 0000 0000 000000
2017-01-14 06:33:20,0.08,7.98,0.00,22.38,26.71,30.00,14.92,50.33,1041.07,2027.05,1466.59,1680.97,1916.17,599.81,611.28,35.72,0000 0000 0000 0000 000000
2017-01-14 06:38:22,0.09,7.98,0.00,22.36,26.70,30.04,14.94,50.06,1041.42,2027.13,1466.00,1680.41,1915.99,599.94,611.78,35.77,0000 0000 0000 0000 000000
2017-01-14 06:43:23,0.09,7.99,0.00,22.34,26.70,30.03,15.00,49.79,1041.53,2027.20,1465.46,1680.01,1915.40,600.07,612.20,35.82,0000 0000 0000 0000 000000
2017-01-14 06:48:24,0.06,7.99,0.00,22.33,26.68,30.01,14.95,49.91,1041.52,2027.36,1464.98,1679.90,1915.00,599.92,611.91,35.87,0000 0000 0000 0000 000000
2017-01-14 06:53:25,0.15,8.00,0.00,22.32,26.67,30.00,14.91,49.82,1041.53,2027.41,1464.20,1679.15,1914.51,599.84,611.89,35.92,0000 0000 0000 0000 000000
2017-01-14 06:58:27,0.04,8.00,0.00,22.30,26.66,29.98,14.92,49.83,1041.54,2027.58,1463.89,1678.99,1914.01,600.17,612.25,35.97,0000 0000 0000 0000 000000
2017-01-14 07:03:28,0.11,8.00,0.00,22.29,26.65,29.91,14.91,50.08,1041.52,2027.69,1463.08,1678.73,1913.71,599.66,611.82,36.02,0000 0000 0000 0000 000000
2017-01-14 07:08:29,0.09,8.01,0.00,22.29,26.64,29.94,14.89,49.92,1041.52,2027.74,1462.66,1678.05,1913.03,599.83,611.88,36.07,0000 0000 0000 0000 000000
2017-01-14 07:13:31,0.05,8.01,0.00,22.28,26.62,29.91,14.98,49.93,1041.52,2027.83,1462.02,1677.99,1912.90,599.78,611.84,36.12,0000 0000 0000 0000 000000
2017-01-14 07:18:32,0.12,8.02,0.00,22.27,26.62,29.90,14.98,49.97,1041.76,2027.94,1461.46,1677.62,1912.13,600.23,612.35,36.17,0000 0000 0000 0000 000000
2017-01-14 07:23:33,0.04,8.02,0.00,22.27,26.60,29.85,14.89,49.71,1042.03,2027.94,1461.00,1677.03,1911.99,599.84,612.33,36.22,0000 0000 0000 0000 000000
2017-01-14 07:28:34,0.08,8.02,0.00,22.28,26.60,29.88,14.91,49.63,1042.03,2027.96,1460.40,1676.99,1911.55,600.26,612.72,36.27,0000 0000 0000 0000 000000
2017-01-14 07:33:36,0.05,8.03,0.00,22.30,26.57,29.91,14.91,49.80,1042.03,2027.97,1459.99,1676.70,1911.02,599.84,612.22,36.32,0000 0000 0000 0000 000000
2017-01-14 07:38:37,0.09,8.03,0.00,22.30,26.57,29.86,14.95,49.67,1042.02,2027.99,1459.40,1676.09,1910.85,599.89,612.33,36.37,0000 0000 0000 0000 000000
2017-01-14 07:43:39,0.03,8.04,0.00,22.32,26.57,29.87,14.95,49.84,1041.90,2027.98,1459.00,1675.99,1910.12,599.86,612.10,36.42,0000 0000 0000 0000 000000
2017-01-14 07:48:40,0.07,8.04,0.00,22.32,26.57,29.74,14.94,49.89,1041.59,2027.97,1458.38,1675.80,1909.99,600.06,612.12,36.47,0000 0000 0000 0000 000000
2017-01-14 07:53:41,0.08,8.04,0.00,22.30,26.55,29.79,14.95,49.85,1041.53,2027.99,1458.00,1675.14,1909.54,599.74,611.90,36.52,0000 0000 0000 0000 000000
2017-01-14 07:58:42,0.06,8.05,0.00,22.31,26.55,29.82,14.96,49.93,1041.53,2027.98,1457.45,1675.00,1909.02,600.28,612.31,36.57,0000 0000 0000 0000 000000
2017-01-14 08:03:43,0.02,8.05,0.00,22.30,26.55,29.74,14.95,50.05,1041.53,2027.99,1457.00,1674.96,1908.93,600.43,612.58,36.62,0000 0000 0000 0000 000000
2017-01-14 08:08:44,0.13,8.05,0.00,22.29,26.55,29.77,14.96,49.99,1041.54,2027.99,1456.55,1674.33,1908.24,600.19,612.22,36.67,0000 0000 0000 0000 000000
2017-01-14 08:13:46,0.03,8.06,0.00,22.27,26.53,29.80,14.96,49.98,1041.97,2027.99,1456.02,1674.02,1908.00,599.93,612.34,36.73,0000 0000 0000 0000 000000
2017-01-14 08:18:47,0.02,8.06,0.00,22.26,26.52,29.79,14.97,49.82,1042.01,2027.99,1455.90,1673.99,1907.83,600.25,612.82,36.78,0000 0000 0000 0000 000000
2017-01-14 08:23:48,0.11,8.06,0.00,22.27,26.52,29.81,14.93,49.70,1042.01,2027.99,1455.14,1673.71,1907.12,599.80,612.20,36.83,0000 0000 0000 0000 000000
2017-01-14 08:28:49,0.03,8.07,0.00,22.28,26.51,29.77,14.93,49.59,1042.01,2027.99,1454.97,1673.09,1906.99,599.91,612.41,36.88,0000 0000 0000 0000 000000
2017-01-14 08:33:50,0.05,8.07,0.00,22.29,26.50,29.73,14.94,49.66,1041.92,2027.99,1454.41,1673.00,1906.94,600.40,612.71,36.93,0000 0000 0000 0000 000000
2017-01-14 08:38:52,0.04,8.07,0.00,22.30,26.50,29.74,14.98,49.89,1041.72,2027.99,1454.01,1672.99,1906.25,600.23,612.50,36.98,0000 0000 0000 0000 000000
2017-01-14 08:43:53,0.02,8.07,0.00,22.31,26.50,29.83,14.96,49.84,1041.56,2027.99,1453.88,1672.89,1906.01,600.05,612.21,37.03,0000 0000 0000 0000 000000
2017-01-14 08:48:54,0.10,8.08,0.00,22.30,26.50,29.77,14.91,49.82,1041.95,2028.00,1453.13,1672.20,1905.97,599.77,612.09,37.08,0000 0000 0000 0000 000000
2017-01-14 08:53:55,0.03,8.08,0.00,22.28,26.50,29.73,14.88,49.70,1041.86,2028.00,1452.99,1672.02,1905.49,599.66,611.97,37.13,0000 0000 0000 0000 000000
2017-01-14 08:58:57,0.03,8.08,0.00,22.27,26.48,29.69,14.90,49.83,1041.56,2028.00,1452.72,1672.00,1905.03,600.06,612.23,37.18,0000 0000 0000 0000 000000
2017-01-14 09:03:58,0.03,8.08,0.00,22.26,26.47,29.80,15.01,49.93,1041.53,2028.01,1452.06,1671.98,1905.00,599.70,611.99,37.23,0000 0000 0000 0000 000000
2017-01-14 09:09:00,0.06,8.08,0.00,22.26,26.47,29.70,14.88,49.92,1041.52,2028.02,1451.97,1671.45,1904.86,599.60,611.77,37.28,0000 0000 0000 0000 000000
2017-01-14 09:14:01,0.09,8.09,0.00,22.26,26.47,29.71,14.97,49.88,1041.40,2028.00,1451.39,1671.04,1904.12,600.08,612.17,37.33,0000 0000 0000 0000 000000
2017-01-14 09:19:03,0.01,8.09,0.00,22.24,26.47,29.71,14.96,50.02,1041.06,2028.01,1451.00,1671.00,1904.00,599.96,611.92,37.38,0000 0000 0000 0000 000000
2017-01-14 09:24:04,0.06,8.09,0.00,22.23,26.46,29.65,14.98,50.22,1041.03,2028.03,1450.56,1670.93,1903.90,600.22,612.31,37.43,0000 0000 0000 0000 000000
2017-01-14 09:29:05,0.10,8.10,0.00,22.21,26.45,29.69,14.92,50.21,1041.03,2028.03,1450.00,1670.23,1903.14,599.93,611.91,37.48,0000 0000 0000 0000 000000
2017-01-14 09:34:06,0.02,8.10,0.00,22.18,26.45,29.70,14.90,50.21,1041.19,2028.02,1449.85,1670.00,1902.99,599.54,611.60,37.53,0000 0000 0000 0000 000000
2017-01-14 09:39:07,0.05,8.10,0.00,22.17,26.44,29.75,14.95,49.97,1041.54,2028.03,1449.20,1670.00,1902.83,600.32,612.73,37.58,0000 0000 0000 0000 000000
2017-01-14 09:44:09,0.03,8.10,0.00,22.15,26.42,29.72,15.00,49.92,1041.90,2028.02,1449.00,1669.99,1902.14,600.09,612.64,37.64,0000 0000 0000 0000 000000
2017-01-14 09:49:10,0.04,8.11,0.00,22.13,26.42,29.73,14.95,49.73,1042.00,2028.10,1448.95,1669.68,1902.01,599.93,612.65,37.69,0000 0000 0000 0000 000000
2017-01-14 09:54:11,0.08,8.11,0.00,22.14,26.42,29.66,14.93,49.68,1042.29,2028.05,1448.24,1669.10,1901.98,599.78,612.60,37.74,0000 0000 0000 0000 000000
2017-01-14 09:59:12,0.02,8.11,0.00,22.15,26.40,29.71,14.93,49.67,1042.50,2028.12,1448.01,1669.00,1901.87,599.64,612.67,37.79,0000 0000 0000 0000 000000
2017-01-14 10:04:14,0.04,8.11,0.00,22.17,26.40,29.64,15.00,49.60,1042.50,2028.13,1447.98,1669.00,1901.18,600.45,613.37,37.84,0000 0000 0000 0000 000000
2017-01-14 10:09:15,0.06,8.12,0.00,22.20,26.40,29.62,14.94,49.62,1042.49,2028.18,1447.43,1668.99,1901.01,600.24,613.11,37.89,0000 0000 0000 0000 000000
2017-01-14 10:14:16,0.04,8.12,0.00,22.21,26.40,29.64,14.94,49.66,1042.31,2028.27,1447.02,1668.79,1900.98,599.71,612.38,37.94,0000 0000 0000 0000 000000
2017-01-14 10:19:18,0.04,8.12,0.00,22.20,26.40,29.59,14.98,49.63,1042.45,2028.27,1446.99,1668.19,1900.77,599.98,612.94,37.99,0000 0000 0000 0000 000000
2017-01-14 10:24:19,0.05,8.12,0.00,22.24,26.40,29.71,14.94,49.57,1042.47,2028.20,1446.68,1668.01,1900.06,599.91,612.66,38.04,0000 0000 0000 0000 000000
2017-01-14 10:29:20,0.03,8.13,0.00,22.25,26.40,29.72,14.96,49.65,1042.04,2028.14,1446.05,1668.00,1900.00,599.76,612.09,38.09,0000 0000 0000 0000 000000
2017-01-14 10:34:22,-0.01,8.13,0.00,22.26,26.40,29.73,15.02,49.67,1042.01,2028.08,1445.99,1667.95,1899.96,599.96,612.47,38.14,0000 0000 0000 0000 000000
2017-01-14 10:39:23,0.08,8.13,0.00,22.26,26.40,29.75,14.99,49.70,1042.04,2028.04,1445.78,1667.52,1899.34,600.55,613.03,38.19,0000 0000 0000 0000 000000
2017-01-14 10:44:24,0.06,8.13,0.00,22.28,26.40,29.80,14.95,49.73,1042.38,2028.08,1445.14,1667.07,1899.03,599.35,612.05,38.24,0000 0000 0000 0000 000000
2017-01-14 10:49:25,-0.00,8.13,0.00,22.31,26.40,29.84,14.97,49.62,1042.49,2028.03,1444.99,1667.00,1898.99,600.59,613.24,38.29,0000 0000 0000 0000 000000
2017-01-14 10:54:26,0.04,8.13,0.00,22.32,26.40,29.85,14.97,49.71,1042.41,2028.01,1444.80,1666.98,1898.65,599.65,612.32,38.34,0000 0000 0000 0000 000000
2017-01-14 10:59:27,0.06,8.14,0.00,22.33,26.40,29.90,14.93,49.83,1042.08,2028.06,1444.11,1666.92,1898.11,599.82,612.19,38.39,0000 0000 0000 0000 000000
2017-01-14 11:04:29,0.04,8.14,0.00,22.35,26.40,29.93,14.94,49.75,1042.01,2028.04,1444.00,1666.39,1898.01,599.93,612.14,38.44,0000 0000 0000 0000 000000
2017-01-14 11:09:30,0.02,8.14,0.00,22.38,26.41,29.92,14.96,49.74,1042.01,2028.03,1443.91,1666.03,1897.98,600.18,612.40,38.49,0000 0000 0000 0000 000000
2017-01-14 11:14:31,0.07,8.15,0.00,22.38,26.42,29.93,15.00,49.81,1042.10,2028.02,1443.14,1666.00,1897.66,600.17,612.43,38.54,0000 0000 0000 0000 000000
2017-01-14 11:19:33,0.02,8.15,0.00,22.38,26.42,29.94,14.96,49.68,1042.09,2028.03,1443.00,1665.99,1897.07,600.26,612.64,38.60,0000 0000 0000 0000 000000
2017-01-14 11:24:34,0.01,8.15,0.00,22.39,26.42,29.96,14.90,49.70,1042.03,2028.03,1442.94,1665.88,1897.00,599.86,612.07,38.65,0000 0000 0000 0000 000000
2017-01-14 11:29:35,0.11,8.15,0.00,22.40,26.42,29.96,14.92,49.86,1042.02,2028.01,1442.21,1665.22,1896.99,599.77,611.92,38.70,0000 0000 0000 0000 000000
2017-01-14 11:34:36,0.03,8.16,0.00,22.41,26.44,29.99,14.96,49.88,1042.26,2028.01,1441.99,1665.03,1896.47,599.92,612.21,38.75,0000 0000 0000 0000 000000
2017-01-14 11:39:38,0.03,8.16,0.00,22.40,26.45,30.00,14.96,49.72,1042.36,2028.02,1441.79,1665.00,1896.02,599.90,612.44,38.80,0000 0000 0000 0000 000000
2017-01-14 11:44:39,0.03,8.16,0.00,22.41,26.45,30.02,14.96,49.68,1042.24,2028.01,1441.17,1664.98,1896.00,600.78,613.12,38.85,0000 0000 0000 0000 000000
2017-01-14 11:49:40,0.04,8.16,0.00,22.40,26.45,30.02,14.93,49.92,1042.03,2028.00,1441.00,1664.68,1895.93,600.03,612.22,38.90,0000 0000 0000 0000 000000
2017-01-14 11:54:42,0.06,8.16,0.00,22.40,26.47,30.03,14.99,50.12,1042.01,2028.01,1440.91,1664.11,1895.29,600.19,612.38,38.95,0000 0000 0000 0000 000000
2017-01-14 11:59:43,0.06,8.17,0.00,22.41,26.47,30.04,14.96,49.87,1042.03,2028.00,1440.15,1664.01,1895.01,600.07,612.45,39.00,0000 0000 0000 0000 000000
2017-01-14 12:04:44,0.00,8.17,0.00,22.41,26.47,30.06,14.90,49.74,1042.13,2028.00,1440.00,1664.00,1894.99,600.11,612.32,39.05,0000 0000 0000 0000 000000
2017-01-14 12:09:45,0.01,8.17,0.00,22.39,26.48,30.05,15.03,49.72,1042.28,2028.00,1439.93,1663.96,1894.82,600.58,612.93,39.10,0000 0000 0000 0000 000000
2017-01-14 12:14:47,0.11,8.17,0.00,22.39,26.50,30.02,14.94,49.77,1042.49,2028.00,1439.29,1663.52,1894.15,600.00,612.50,39.15,0000 0000 0000 0000 000000
2017-01-14 12:19:48,0.03,8.18,0.00,22.38,26.50,30.04,14.93,49.81,1042.50,2028.00,1439.02,1663.07,1894.00,599.99,612.47,39.20,0000 0000 0000 0000 000000
2017-01-14 12:24:49,0.00,8.18,0.00,22.39,26.50,30.02,14.94,49.88,1042.48,2028.00,1438.96,1663.00,1893.97,599.76,612.20,39.25,0000 0000 0000 0000 000000
2017-01-14 12:29:50,0.05,8.18,0.00,22.38,26.50,30.02,14.97,49.94,1042.29,2028.00,1438.49,1663.00,1893.80,600.03,612.37,39.30,0000 0000 0000 0000 000000
2017-01-14 12:34:52,0.04,8.18,0.00,22.40,26.51,30.02,14.96,49.78,1042.06,2027.99,1438.02,1662.99,1893.12,600.22,612.45,39.35,0000 0000 0000 0000 000000
2017-01-14 12:39:53,0.01,8.18,0.00,22.39,26.52,29.92,14.99,50.11,1042.29,2027.99,1438.00,1662.91,1893.01,600.28,612.54,39.40,0000 0000 0000 0000 000000
2017-01-14 12:44:55,0.05,8.18,0.00,22.39,26.52,29.96,14.96,50.12,1042.34,2027.99,1437.85,1662.35,1892.99,599.95,612.34,39.45,0000 0000 0000 0000 000000
2017-01-14 12:49:56,0.07,8.19,0.00,22.39,26.52,29.89,14.92,50.08,1042.12,2027.99,1437.18,1662.04,1892.77,599.75,611.99,39.51,0000 0000 0000 0000 000000
2017-01-14 12:54:57,0.02,8.19,0.00,22.37,26.52,29.98,15.01,49.94,1042.04,2027.98,1437.00,1662.00,1892.14,600.29,612.51,39.56,0000 0000 0000 0000 000000